OpenBCM V1.07b12 (Linux)

Packet Radio Mailbox

DB0FHN

[JN59NK Nuernberg]

 Login: GUEST





  
CX7BY  > KEPS     11.04.03 05:30l 207 Lines 5444 Bytes #999 (0) @ AMSAT
BID : ORB03100.W
Read: DB0FHN GUEST
Subj: Orbital Elements  03100.WEATHER
Path: DB0FHN<DB0RGB<DB0MRW<DB0HOT<OK0PBX<OK0PHK<OK0NAG<OK0PPL<RZ6HXA<IK1ZNW<
      ON0AR<IW8PGT<SP7MGD<ON0BEL<ON4HU<CX2ACB<CX7BY
Sent: 030411/0310Z @:CX7BY.MVD.URY.SA #:35749 [Montevideo] FBB $:ORB03100.W
From: CX7BY@CX7BY.MVD.URY.SA
To  : KEPS@AMSAT


HR AMSAT ORBITAL ELEMENTS FOR WEATHER SATELLITES
FROM WA5QGD FORT WORTH,TX April 10, 2003
SEND SUBSCRIBE/UNSUBSCRIBE TO majordomo@amsat.org ONLY
BID: ORB03100.W
TO ALL RADIO AMATEURS BT

Satellite: NOAA-10
Catalog number: 16969
Epoch time:      03100.45044332
Element set:     729
Inclination:       98.7357 deg
RA of node:        94.4791 deg
Eccentricity:    0.0011859
Arg of perigee:   302.6926 deg
Mean anomaly:      57.3115 deg
Mean motion:   14.27087181 rev/day
Decay rate:       2.52e-06 rev/day^2
Epoch rev:           86116
Checksum:              306

Satellite: NOAA-11
Catalog number: 19531
Epoch time:      03100.79339190
Element set:     567
Inclination:       98.8923 deg
RA of node:       181.9873 deg
Eccentricity:    0.0012373
Arg of perigee:    59.8044 deg
Mean anomaly:     300.4827 deg
Mean motion:   14.14563987 rev/day
Decay rate:       2.83e-06 rev/day^2
Epoch rev:           75004
Checksum:              317

Satellite: NOAA-12
Catalog number: 21263
Epoch time:      03100.80740078
Element set:      37
Inclination:       98.6336 deg
RA of node:        89.6001 deg
Eccentricity:    0.0011975
Arg of perigee:   230.3483 deg
Mean anomaly:     129.7130 deg
Mean motion:   14.25120479 rev/day
Decay rate:       4.25e-06 rev/day^2
Epoch rev:           61855
Checksum:              274

Satellite: MET-3/5
Catalog number: 21655
Epoch time:      03099.89125671
Element set:    0527
Inclination:      082.5602 deg
RA of node:       003.3185 deg
Eccentricity:    0.0014653
Arg of perigee:   072.7949 deg
Mean anomaly:     287.4772 deg
Mean motion:   13.16982809 rev/day
Decay rate:        5.1e-07 rev/day^2
Epoch rev:           56010
Checksum:              314

Satellite: MET-2/21
Catalog number: 22782
Epoch time:      03100.66441645
Element set:     565
Inclination:       82.5515 deg
RA of node:       174.3845 deg
Eccentricity:    0.0022257
Arg of perigee:   198.5129 deg
Mean anomaly:     161.5234 deg
Mean motion:   13.83535422 rev/day
Decay rate:       1.51e-06 rev/day^2
Epoch rev:           48515
Checksum:              291

Satellite: OKEAN-4
Catalog number: 23317
Epoch time:      03100.79508491
Element set:     199
Inclination:       82.5373 deg
RA of node:       281.2423 deg
Eccentricity:    0.0021426
Arg of perigee:   242.8149 deg
Mean anomaly:     117.0889 deg
Mean motion:   14.81056742 rev/day
Decay rate:      1.470e-05 rev/day^2
Epoch rev:           45768
Checksum:              304

Satellite: NOAA-14
Catalog number: 23455
Epoch time:      03100.44665911
Element set:     588
Inclination:       99.1855 deg
RA of node:       120.3521 deg
Eccentricity:    0.0010228
Arg of perigee:    86.3070 deg
Mean anomaly:     273.9272 deg
Mean motion:   14.13318519 rev/day
Decay rate:       2.45e-06 rev/day^2
Epoch rev:           42666
Checksum:              286

Satellite: SICH-1
Catalog number: 23657
Epoch time:      03100.83218664
Element set:       2
Inclination:       82.5284 deg
RA of node:        61.9804 deg
Eccentricity:    0.0023023
Arg of perigee:   222.5186 deg
Mean anomaly:     137.4245 deg
Mean motion:   14.80109278 rev/day
Decay rate:      1.687e-05 rev/day^2
Epoch rev:           40981
Checksum:              280

Satellite: NOAA-15
Catalog number: 25338
Epoch time:      03100.46070820
Element set:      72
Inclination:       98.5475 deg
RA of node:       121.2287 deg
Eccentricity:    0.0010515
Arg of perigee:   163.9604 deg
Mean anomaly:     196.1912 deg
Mean motion:   14.24270361 rev/day
Decay rate:       2.78e-06 rev/day^2
Epoch rev:           25504
Checksum:              271

Satellite: RESURS
Catalog number: 25394
Epoch time:      03100.23038033
Element set:     490
Inclination:       98.6217 deg
RA of node:       177.2011 deg
Eccentricity:    0.0001029
Arg of perigee:     4.4916 deg
Mean anomaly:     355.6271 deg
Mean motion:   14.23898466 rev/day
Decay rate:       2.17e-06 rev/day^2
Epoch rev:           24674
Checksum:              272

Satellite: FENGYUN1
Catalog number: 25730
Epoch time:      03100.18655930
Element set:     808
Inclination:       98.6318 deg
RA of node:       122.6805 deg
Eccentricity:    0.0013848
Arg of perigee:   216.0493 deg
Mean anomaly:     143.9746 deg
Mean motion:   14.11739450 rev/day
Decay rate:        2.0e-08 rev/day^2
Epoch rev:           20177
Checksum:              282

Satellite: OKEAN-0
Catalog number: 25860
Epoch time:      03099.98351681
Element set:    0057
Inclination:      097.8562 deg
RA of node:       145.8713 deg
Eccentricity:    0.0000460
Arg of perigee:   076.3387 deg
Mean anomaly:     283.7871 deg
Mean motion:   14.72687076 rev/day
Decay rate:       9.73e-06 rev/day^2
Epoch rev:           20035
Checksum:              328

Satellite: NOAA-16
Catalog number: 26536
Epoch time:      03100.39206787
Element set:     284
Inclination:       98.9090 deg
RA of node:        48.3227 deg
Eccentricity:    0.0010713
Arg of perigee:   157.7915 deg
Mean anomaly:     202.3722 deg
Mean motion:   14.11936961 rev/day
Decay rate:       4.18e-06 rev/day^2
Epoch rev:           13132
Checksum:              289

Satellite: NOAA-17
Catalog number: 27453
Epoch time:      03100.46169214
Element set:     368
Inclination:       98.7473 deg
RA of node:       171.3807 deg
Eccentricity:    0.0011368
Arg of perigee:   206.1588 deg
Mean anomaly:     153.9017 deg
Mean motion:   14.23327386 rev/day
Decay rate:       3.70e-06 rev/day^2
Epoch rev:            4120
Checksum:              289



Read previous mail | Read next mail


 16.09.2025 12:55:21lGo back Go up